Home > Time Zones > World Clock > Weather > Japan > Naha > Past weeks

Flag for Japan Weather past 2 weeks in Naha, Okinawa, Japan

Now
86 °F

Scattered clouds.


Feels Like: 97 °F
Forecast: 81 / 85 °F
Wind: 14 mph from South

Location: Naha Airport

Current Time: Aug 31, 2015 at 4:01:34 PM

Latest Report: Aug 31, 2015 at 3:30 PM


Visibility: N/A

Pressure: 29.80 "Hg

Humidity: 75%

Dew point: 77 °F

Location of NahaLocation

Historic Weather in Naha — Graph

°F

Naha temperature yesterday

Maximum temperature yesterday: 88 °F (at 12:30 PM)
Minimum temperature yesterday: 81 °F (at 1:30 AM)
Average temperature yesterday: 83 °F

Past Weeks' High & Low Weather Summary

 TemperatureHumidityPressure
High90 °F (Aug 19, 1:00 PM)94% (Aug 16, 10:30 PM)29.86 "Hg (Aug 16, 10:30 PM)
Low77 °F (Aug 17, 12:00 PM)62% (Aug 27, 1:30 PM)29.18 "Hg (Aug 24, 11:47 AM)
Average84 °F79%29.71 "Hg
* Reported Aug 16 3:00 PM — Aug 31 3:00 PM, Naha, Weather by CustomWeather, © 2015

Note: Actual official high and low records may vary slightly from our data, if they occured in-between our weather recording intervals... More about our weather records

Advertising

Naha weather history for previous 24 hours

 ConditionsComfort  
Time TempWeatherWind HumidityBarometerVisibility
3:00 PM
Mon, Aug 31
86 °FScattered clouds.14 mph75%29.80 "HgN/A
2:30 PM88 °FScattered clouds.14 mph70%29.80 "HgN/A
2:00 PM88 °FScattered clouds.13 mph70%29.80 "HgN/A
1:30 PM88 °FScattered clouds.14 mph70%29.80 "HgN/A
1:00 PM88 °FScattered showers. Scattered clouds.14 mph70%29.80 "HgN/A
12:30 PM86 °FScattered showers. Scattered clouds.13 mph75%29.80 "HgN/A
12:00 PM86 °FScattered showers. Scattered clouds.12 mph75%29.83 "HgN/A
11:30 AM86 °FPassing clouds.12 mph75%29.83 "HgN/A
11:00 AM86 °FPassing clouds.10 mph75%29.83 "HgN/A
10:30 AM86 °FScattered clouds.10 mph75%29.83 "HgN/A
10:00 AM86 °FScattered clouds.10 mph79%29.83 "HgN/A
9:30 AM84 °FBroken clouds.10 mph79%29.83 "HgN/A
9:00 AM84 °FPartly sunny.10 mph79%29.83 "HgN/A
8:30 AM84 °FPartly sunny.12 mph84%29.83 "HgN/A
8:00 AM84 °FBroken clouds.12 mph79%29.83 "HgN/A
7:30 AM84 °FBroken clouds.12 mph79%29.83 "HgN/A
7:00 AM82 °FPartly sunny.13 mph84%29.80 "HgN/A
6:30 AM82 °FPartly sunny.13 mph84%29.80 "HgN/A
6:00 AM82 °FPassing clouds.12 mph84%29.80 "HgN/A
5:30 AM82 °FPassing clouds.13 mph84%29.80 "HgN/A
5:00 AM82 °FPassing clouds.13 mph84%29.80 "HgN/A
4:30 AM82 °FPassing clouds.13 mph84%29.80 "HgN/A
4:00 AM82 °FPassing clouds.13 mph84%29.80 "HgN/A
3:30 AM82 °FPassing clouds.13 mph84%29.80 "HgN/A
3:00 AM82 °FPartly cloudy.12 mph84%29.83 "HgN/A
2:30 AM82 °FPartly cloudy.13 mph84%29.83 "HgN/A
2:00 AM82 °FPassing clouds.13 mph84%29.83 "HgN/A
1:30 AM82 °FPassing clouds.13 mph84%29.83 "HgN/A
1:00 AM82 °FPassing clouds.13 mph84%29.83 "HgN/A
12:30 AM82 °FPassing clouds.12 mph84%29.83 "HgN/A
12:00 AM82 °FPassing clouds.12 mph84%29.83 "HgN/A
11:30 PM
Sun, Aug 30
82 °FPassing clouds.12 mph84%29.83 "HgN/A
11:00 PM82 °FPassing clouds.13 mph84%29.83 "HgN/A
10:30 PM82 °FPassing clouds.12 mph84%29.86 "HgN/A
10:00 PM82 °FPassing clouds.10 mph84%29.86 "HgN/A
9:30 PM82 °FPassing clouds.9 mph84%29.83 "HgN/A
9:00 PM82 °FPassing clouds.9 mph84%29.83 "HgN/A
8:30 PM82 °FPassing clouds.9 mph79%29.83 "HgN/A
8:00 PM82 °FPassing clouds.10 mph84%29.83 "HgN/A
7:30 PM82 °FPassing clouds.10 mph84%29.80 "HgN/A
7:00 PM82 °FPassing clouds.12 mph79%29.80 "HgN/A
6:30 PM84 °FPartly sunny.13 mph74%29.80 "HgN/A
6:00 PM84 °FScattered showers. Partly sunny.12 mph79%29.80 "HgN/A
5:30 PM86 °FSprinkles. Broken clouds.12 mph75%29.80 "HgN/A
5:00 PM86 °FBroken clouds.15 mph75%29.77 "HgN/A
4:30 PM88 °FBroken clouds.14 mph70%29.77 "HgN/A
4:00 PM88 °FBroken clouds.15 mph70%29.77 "HgN/A
Weather by CustomWeather, © 2015

See weather overviewHow to use our weather pages